| time (UTC) | temp F | wind direction | speed knots | gust knots | rain 1hr in | rain 24hr in | rain mn in | humidity % | barometer mb |
| 20260504021541 | 62 | 224 | 6.1 | 13.0 | 0.00 | 0.00 | 0.00 | 68 | 1013.7 |
| 20260504021019 | 62 | 211 | 6.1 | 13.9 | 0.00 | 0.00 | 0.00 | 67 | 1013.6 |
| 20260504020520 | 63 | 242 | 6.1 | 13.9 | 0.00 | 0.00 | 0.00 | 67 | 1013.5 |
| 20260504020035 | 63 | 225 | 5.2 | 13.0 | 0.00 | 0.00 | 0.00 | 67 | 1013.3 |
| 20260504015521 | 63 | 242 | 6.1 | 12.2 | 0.00 | 0.00 | 0.00 | 66 | 1013.5 |
| 20260504015022 | 63 | 221 | 6.1 | 12.2 | 0.00 | 0.00 | 0.00 | 66 | 1013.4 |
| 20260504014535 | 64 | 221 | 4.3 | 11.3 | 0.00 | 0.00 | 0.00 | 65 | 1013.4 |
| 20260504014019 | 64 | 244 | 4.3 | 11.3 | 0.00 | 0.00 | 0.00 | 65 | 1013.3 |
| 20260504013520 | 65 | 228 | 4.3 | 10.4 | 0.00 | 0.00 | 0.00 | 64 | 1013.0 |
| 20260504013043 | 65 | 196 | 2.6 | 13.0 | 0.00 | 0.00 | 0.00 | 64 | 1013.2 |
| 20260504012521 | 65 | 234 | 5.2 | 13.0 | 0.00 | 0.00 | 0.00 | 63 | 1013.3 |
| 20260504012020 | 66 | 240 | 2.6 | 10.4 | 0.00 | 0.00 | 0.00 | 63 | 1013.0 |
| 20260504011534 | 66 | 213 | 5.2 | 10.4 | 0.00 | 0.00 | 0.00 | 62 | 1013.1 |
| 20260504011020 | 66 | 244 | 3.5 | 8.7 | 0.00 | 0.00 | 0.00 | 62 | 1013.2 |
| 20260504010520 | 65 | 211 | 2.6 | 7.8 | 0.00 | 0.00 | 0.00 | 62 | 1012.9 |
| 20260504010035 | 65 | 0 | 0.9 | 9.6 | 0.00 | 0.00 | 0.00 | 62 | 1012.8 |
| 20260504005521 | 66 | 214 | 3.5 | 10.4 | 0.00 | 0.00 | 0.00 | 62 | 1012.8 |
| 20260504005020 | 66 | 209 | 4.3 | 10.4 | 0.00 | 0.00 | 0.00 | 60 | 1012.9 |
| 20260504004543 | 67 | 211 | 6.1 | 13.9 | 0.00 | 0.00 | 0.00 | 60 | 1013.0 |
| 20260504004019 | 67 | 244 | 5.2 | 13.9 | 0.00 | 0.00 | 0.00 | 60 | 1012.9 |
| 20260504003520 | 67 | 189 | 6.1 | 13.9 | 0.00 | 0.00 | 0.00 | 59 | 1013.0 |
| 20260504003035 | 68 | 178 | 5.2 | 14.8 | 0.00 | 0.00 | 0.00 | 59 | 1012.9 |
| 20260504002519 | 68 | 217 | 4.3 | 14.8 | 0.00 | 0.00 | 0.00 | 59 | 1012.8 |
| 20260504002019 | 68 | 240 | 6.1 | 10.4 | 0.00 | 0.00 | 0.00 | 58 | 1012.7 |
| 20260504001535 | 69 | 206 | 5.2 | 11.3 | 0.00 | 0.00 | 0.00 | 58 | 1012.7 |
| 20260504001022 | 68 | 218 | 3.5 | 11.3 | 0.00 | 0.00 | 0.00 | 58 | 1012.6 |
| 20260504000524 | 68 | 248 | 2.6 | 9.6 | 0.00 | 0.00 | 0.00 | 59 | 1012.4 |
| 20260504000040 | 67 | 208 | 3.5 | 9.6 | 0.00 | 0.00 | 0.00 | 60 | 1012.5 |
| 20260503235521 | 68 | 220 | 0.9 | 7.8 | 0.00 | 0.00 | 0.00 | 60 | 1012.6 |
| 20260503235019 | 68 | 217 | 2.6 | 10.4 | 0.00 | 0.00 | 0.00 | 60 | 1012.6 |
| 20260503234538 | 68 | 203 | 2.6 | 10.4 | 0.00 | 0.00 | 0.00 | 58 | 1012.4 |
| 20260503234020 | 69 | 221 | 3.5 | 9.6 | 0.00 | 0.00 | 0.00 | 59 | 1012.5 |
| 20260503233519 | 68 | 231 | 5.2 | 8.7 | 0.00 | 0.00 | 0.00 | 58 | 1012.6 |
| 20260503233035 | 68 | 220 | 4.3 | 9.6 | 0.00 | 0.00 | 0.00 | 60 | 1012.7 |
| 20260503232519 | 68 | 221 | 4.3 | 11.3 | 0.00 | 0.00 | 0.00 | 59 | 1012.8 |
| 20260503232019 | 68 | 221 | 6.1 | 13.0 | 0.00 | 0.00 | 0.00 | 58 | 1012.9 |
| 20260503231536 | 69 | 244 | 5.2 | 13.0 | 0.00 | 0.00 | 0.00 | 58 | 1013.0 |
| 20260503231022 | 69 | 270 | 4.3 | 10.4 | 0.00 | 0.00 | 0.00 | 60 | 1012.9 |
| 20260503230521 | 68 | 234 | 5.2 | 10.4 | 0.00 | 0.00 | 0.00 | 62 | 1013.0 |
| 20260503230035 | 67 | 238 | 5.2 | 9.6 | 0.00 | 0.00 | 0.00 | 62 | 1013.0 |
| 20260503225521 | 67 | 233 | 4.3 | 10.4 | 0.00 | 0.00 | 0.00 | 62 | 1013.1 |
| 20260503225021 | 67 | 264 | 3.5 | 10.4 | 0.00 | 0.00 | 0.00 | 62 | 1013.1 |
| 20260503224538 | 67 | 212 | 1.7 | 10.4 | 0.00 | 0.00 | 0.00 | 64 | 1013.0 |
| 20260503224021 | 67 | 219 | 3.5 | 10.4 | 0.00 | 0.00 | 0.00 | 64 | 1013.1 |
| 20260503223524 | 67 | 231 | 5.2 | 10.4 | 0.00 | 0.00 | 0.00 | 65 | 1013.2 |
| 20260503223037 | 67 | 207 | 4.3 | 8.7 | 0.00 | 0.00 | 0.00 | 65 | 1013.3 |
| 20260503222519 | 67 | 228 | 2.6 | 7.8 | 0.00 | 0.00 | 0.00 | 66 | 1013.3 |
| 20260503222019 | 67 | 229 | 3.5 | 7.8 | 0.00 | 0.00 | 0.00 | 66 | 1013.4 |
| 20260503221536 | 66 | 226 | 1.7 | 7.8 | 0.00 | 0.00 | 0.00 | 66 | 1013.4 |
| 20260503221017 | 66 | 215 | 3.5 | 7.8 | 0.00 | 0.00 | 0.00 | 66 | 1013.5 |
| 20260503220520 | 66 | 200 | 1.7 | 8.7 | 0.00 | 0.00 | 0.00 | 67 | 1013.5 |
| 20260503220038 | 66 | 0 | 2.6 | 8.7 | 0.00 | 0.00 | 0.00 | 67 | 1013.6 |
| 20260503215516 | 66 | 238 | 2.6 | 11.3 | 0.00 | 0.00 | 0.00 | 67 | 1013.7 |
| 20260503215016 | 66 | 241 | 2.6 | 11.3 | 0.00 | 0.00 | 0.00 | 67 | 1013.6 |
| 20260503214534 | 66 | 238 | 6.1 | 11.3 | 0.00 | 0.00 | 0.00 | 68 | 1013.7 |
| 20260503214016 | 66 | 236 | 2.6 | 9.6 | 0.00 | 0.00 | 0.00 | 69 | 1013.7 |
| 20260503213519 | 66 | 217 | 3.5 | 12.2 | 0.00 | 0.00 | 0.00 | 69 | 1013.7 |
| 20260503213032 | 66 | 214 | 5.2 | 12.2 | 0.00 | 0.00 | 0.00 | 69 | 1013.7 |
| 20260503212516 | 66 | 215 | 5.2 | 11.3 | 0.00 | 0.00 | 0.00 | 69 | 1013.7 |
| 20260503212017 | 66 | 223 | 3.5 | 7.8 | 0.00 | 0.00 | 0.00 | 70 | 1013.7 |
| 20260503211541 | 66 | 226 | 2.6 | 7.8 | 0.00 | 0.00 | 0.00 | 70 | 1013.8 |
| 20260503211019 | 66 | 207 | 0.9 | 9.6 | 0.00 | 0.00 | 0.00 | 71 | 1013.7 |
| 20260503210520 | 66 | 223 | 4.3 | 9.6 | 0.00 | 0.00 | 0.00 | 70 | 1013.8 |
| 20260503210035 | 66 | 220 | 2.6 | 8.7 | 0.00 | 0.00 | 0.00 | 71 | 1013.7 |
| 20260503205524 | 66 | 224 | 2.6 | 8.7 | 0.00 | 0.00 | 0.00 | 70 | 1013.8 |
| 20260503205017 | 67 | 192 | 4.3 | 9.6 | 0.00 | 0.00 | 0.00 | 70 | 1013.8 |
| 20260503204535 | 67 | 248 | 3.5 | 9.6 | 0.00 | 0.00 | 0.00 | 69 | 1013.8 |
| 20260503204016 | 67 | 207 | 0.9 | 5.2 | 0.00 | 0.00 | 0.00 | 70 | 1013.8 |
| 20260503203516 | 67 | 0 | 1.7 | 7.0 | 0.00 | 0.00 | 0.00 | 70 | 1013.8 |
| 20260503203036 | 67 | 0 | 1.7 | 7.0 | 0.00 | 0.00 | 0.00 | 70 | 1014.0 |
| 20260503202516 | 66 | 213 | 0.9 | 7.0 | 0.00 | 0.00 | 0.00 | 70 | 1014.1 |
| 20260503202017 | 66 | 0 | 0.0 | 6.1 | 0.00 | 0.00 | 0.00 | 71 | 1014.1 |
| 20260503201534 | 66 | 223 | 0.0 | 6.1 | 0.00 | 0.00 | 0.00 | 71 | 1014.1 |
| 20260503201017 | 66 | 219 | 1.7 | 7.8 | 0.00 | 0.00 | 0.00 | 71 | 1014.1 |
| 20260503200516 | 66 | 208 | 0.9 | 8.7 | 0.00 | 0.00 | 0.00 | 70 | 1014.1 |
| 20260503200035 | 66 | 219 | 4.3 | 8.7 | 0.00 | 0.00 | 0.00 | 71 | 1014.2 |
| 20260503195517 | 66 | 225 | 1.7 | 9.6 | 0.00 | 0.00 | 0.00 | 70 | 1014.3 |
| 20260503195019 | 66 | 232 | 3.5 | 9.6 | 0.00 | 0.00 | 0.00 | 70 | 1014.3 |
| 20260503194542 | 66 | 0 | 0.0 | 7.8 | 0.00 | 0.00 | 0.00 | 72 | 1014.4 |
| 20260503194020 | 66 | 242 | 2.6 | 7.8 | 0.00 | 0.00 | 0.00 | 71 | 1014.5 |
| 20260503193519 | 66 | 0 | 0.9 | 7.0 | 0.00 | 0.00 | 0.00 | 71 | 1014.6 |
| 20260503193041 | 65 | 218 | 1.7 | 7.0 | 0.00 | 0.00 | 0.00 | 73 | 1014.8 |
| 20260503192518 | 64 | 219 | 1.7 | 7.0 | 0.00 | 0.00 | 0.00 | 74 | 1014.7 |
| 20260503192018 | 64 | 0 | 0.9 | 7.0 | 0.00 | 0.00 | 0.00 | 74 | 1014.8 |
| 20260503191538 | 64 | 222 | 2.6 | 7.0 | 0.00 | 0.00 | 0.00 | 75 | 1014.9 |
| 20260503191021 | 63 | 0 | 1.7 | 7.8 | 0.00 | 0.00 | 0.00 | 76 | 1014.9 |
| 20260503190520 | 63 | 0 | 0.0 | 7.8 | 0.00 | 0.00 | 0.00 | 76 | 1015.0 |
| 20260503190041 | 62 | 235 | 0.9 | 7.0 | 0.00 | 0.00 | 0.00 | 77 | 1015.0 |
| 20260503185519 | 62 | 240 | 1.7 | 6.1 | 0.00 | 0.00 | 0.00 | 76 | 1015.1 |
| 20260503185018 | 61 | 235 | 1.7 | 6.1 | 0.00 | 0.00 | 0.00 | 78 | 1015.1 |
| 20260503184537 | 61 | 223 | 1.7 | 6.1 | 0.00 | 0.00 | 0.00 | 79 | 1015.1 |
| 20260503184019 | 61 | 0 | 0.9 | 6.1 | 0.00 | 0.00 | 0.00 | 80 | 1015.2 |
| 20260503183517 | 61 | 221 | 0.9 | 5.2 | 0.00 | 0.00 | 0.00 | 81 | 1015.2 |
| 20260503183037 | 60 | 221 | 0.0 | 5.2 | 0.00 | 0.00 | 0.00 | 82 | 1015.2 |
| 20260503182523 | 60 | 222 | 2.6 | 5.2 | 0.00 | 0.00 | 0.00 | 82 | 1015.2 |
| 20260503182017 | 61 | 222 | 1.7 | 6.1 | 0.00 | 0.00 | 0.00 | 82 | 1015.3 |
| 20260503181538 | 61 | 225 | 2.6 | 7.8 | 0.00 | 0.00 | 0.00 | 82 | 1015.3 |
| 20260503181020 | 61 | 0 | 0.9 | 7.8 | 0.00 | 0.00 | 0.00 | 81 | 1015.2 |
| 20260503180521 | 61 | 0 | 0.9 | 7.8 | 0.00 | 0.00 | 0.00 | 81 | 1015.3 |
| 20260503180035 | 61 | 0 | 0.9 | 6.1 | 0.00 | 0.00 | 0.00 | 81 | 1015.2 |
| 20260503175521 | 61 | 0 | 0.0 | 0.0 | 0.00 | 0.00 | 0.00 | 81 | 1015.1 |
| 20260503175020 | 61 | 0 | 0.0 | 0.0 | 0.00 | 0.00 | 0.00 | 81 | 1015.2 |
| 20260503174552 | 62 | 0 | 0.0 | 0.0 | 0.00 | 0.00 | 0.00 | 80 | 1015.1 |
| 20260503174019 | 62 | 0 | 0.0 | 0.0 | 0.00 | 0.00 | 0.00 | 80 | 1015.1 |
| 20260503173518 | 61 | 0 | 0.0 | 0.0 | 0.00 | 0.00 | 0.00 | 79 | 1015.0 |
| 20260503173040 | 61 | 0 | 0.0 | 0.0 | 0.00 | 0.00 | 0.00 | 79 | 1015.0 |
| 20260503172518 | 61 | 0 | 0.0 | 0.0 | 0.00 | 0.00 | 0.00 | 80 | 1014.9 |
| 20260503172018 | 61 | 0 | 0.0 | 0.0 | 0.00 | 0.00 | 0.00 | 80 | 1014.9 |
| 20260503171533 | 61 | 0 | 0.0 | 2.6 | 0.00 | 0.00 | 0.00 | 80 | 1014.9 |
| 20260503171019 | 61 | 0 | 0.0 | 7.0 | 0.00 | 0.00 | 0.00 | 79 | 1014.8 |
| 20260503170519 | 61 | 0 | 0.9 | 7.0 | 0.00 | 0.00 | 0.00 | 79 | 1014.8 |
| 20260503150522 | 58 | 0 | 0.0 | 0.0 | 0.00 | 0.00 | 0.00 | 89 | 1014.2 |
| 20260503131021 | 57 | 0 | 0.0 | 0.0 | 0.00 | 0.00 | 0.00 | 92 | 1013.5 |
| 20260503130521 | 57 | 0 | 0.0 | 0.0 | 0.00 | 0.00 | 0.00 | 92 | 1013.4 |
| 20260503110517 | 58 | 0 | 0.9 | 5.2 | 0.00 | 0.00 | 0.00 | 91 | 1012.9 |
| 20260503081545 | 59 | 239 | 2.6 | 7.8 | 0.00 | 0.00 | 0.00 | 88 | 1013.6 |
| 20260503081017 | 59 | 217 | 0.9 | 7.8 | 0.00 | 0.00 | 0.00 | 88 | 1013.7 |
| 20260503080517 | 59 | 217 | 2.6 | 7.8 | 0.00 | 0.00 | 0.00 | 88 | 1013.8 |
| 20260503072520 | 59 | 246 | 4.3 | 8.7 | 0.00 | 0.00 | 0.00 | 87 | 1013.4 |
| 20260503072022 | 59 | 265 | 2.6 | 7.0 | 0.00 | 0.00 | 0.00 | 87 | 1013.4 |
| 20260503071541 | 59 | 267 | 2.6 | 6.1 | 0.00 | 0.00 | 0.00 | 87 | 1013.4 |
| 20260503071018 | 59 | 0 | 0.0 | 7.0 | 0.00 | 0.00 | 0.00 | 87 | 1013.3 |
| 20260503070517 | 59 | 0 | 0.9 | 7.0 | 0.00 | 0.00 | 0.00 | 87 | 1013.3 |
| 20260503055020 | 60 | 0 | 0.0 | 7.8 | 0.00 | 0.00 | 0.00 | 84 | 1013.1 |
| 20260503054536 | 60 | 0 | 1.7 | 7.8 | 0.00 | 0.00 | 0.00 | 84 | 1013.0 |
| 20260503054022 | 60 | 257 | 1.7 | 7.8 | 0.00 | 0.00 | 0.00 | 84 | 1013.1 |
| 20260503053521 | 60 | 253 | 0.9 | 7.0 | 0.00 | 0.00 | 0.00 | 84 | 1013.1 |
| 20260503053035 | 60 | 254 | 0.9 | 7.8 | 0.00 | 0.00 | 0.00 | 84 | 1013.0 |
| 20260503052521 | 60 | 253 | 4.3 | 7.8 | 0.00 | 0.00 | 0.00 | 84 | 1013.2 |
| 20260503052022 | 60 | 259 | 2.6 | 7.8 | 0.00 | 0.00 | 0.00 | 83 | 1013.1 |
| 20260503051535 | 60 | 258 | 3.5 | 7.8 | 0.00 | 0.00 | 0.00 | 83 | 1013.1 |
| 20260503051021 | 60 | 0 | 0.9 | 8.7 | 0.00 | 0.00 | 0.00 | 83 | 1013.1 |
| 20260503050520 | 60 | 253 | 2.6 | 8.7 | 0.00 | 0.00 | 0.00 | 83 | 1013.0 |
| 20260503050035 | 61 | 248 | 3.5 | 8.7 | 0.00 | 0.00 | 0.00 | 83 | 1013.1 |
| 20260503045521 | 61 | 254 | 3.5 | 7.8 | 0.00 | 0.00 | 0.00 | 83 | 1013.0 |
| 20260503045019 | 61 | 260 | 2.6 | 7.0 | 0.00 | 0.00 | 0.00 | 82 | 1013.0 |
| 20260503044545 | 61 | 258 | 1.7 | 6.1 | 0.00 | 0.00 | 0.00 | 82 | 1013.0 |
| 20260503044021 | 61 | 258 | 1.7 | 6.1 | 0.00 | 0.00 | 0.00 | 82 | 1013.0 |
| 20260503043520 | 61 | 259 | 1.7 | 7.0 | 0.00 | 0.00 | 0.00 | 81 | 1012.9 |
| 20260503043033 | 61 | 259 | 2.6 | 7.0 | 0.00 | 0.00 | 0.00 | 82 | 1013.0 |
| 20260503042521 | 61 | 257 | 2.6 | 7.8 | 0.00 | 0.00 | 0.00 | 81 | 1012.8 |
| 20260503042021 | 62 | 258 | 2.6 | 8.7 | 0.00 | 0.00 | 0.00 | 81 | 1012.8 |
| 20260503041535 | 62 | 256 | 4.3 | 9.6 | 0.00 | 0.00 | 0.00 | 80 | 1012.6 |
| 20260503041021 | 62 | 261 | 4.3 | 9.6 | 0.00 | 0.00 | 0.00 | 80 | 1012.6 |
| 20260503040520 | 62 | 241 | 3.5 | 9.6 | 0.00 | 0.00 | 0.00 | 80 | 1012.5 |
| 20260503040036 | 62 | 250 | 3.5 | 9.6 | 0.00 | 0.00 | 0.00 | 79 | 1012.5 |
| 20260503035520 | 62 | 244 | 2.6 | 7.8 | 0.00 | 0.00 | 0.00 | 79 | 1012.3 |
| 20260503035021 | 62 | 237 | 2.6 | 7.8 | 0.00 | 0.00 | 0.00 | 79 | 1012.2 |
| 20260503034540 | 63 | 238 | 2.6 | 10.4 | 0.00 | 0.00 | 0.00 | 78 | 1012.2 |
| 20260503034022 | 63 | 265 | 5.2 | 10.4 | 0.00 | 0.00 | 0.00 | 78 | 1012.1 |
| 20260503033520 | 63 | 238 | 3.5 | 13.0 | 0.00 | 0.00 | 0.00 | 77 | 1011.9 |
| 20260503033035 | 63 | 234 | 4.3 | 13.0 | 0.00 | 0.00 | 0.00 | 77 | 1011.8 |
| 20260503032520 | 63 | 227 | 5.2 | 13.0 | 0.00 | 0.00 | 0.00 | 76 | 1011.7 |
| 20260503032020 | 64 | 248 | 4.3 | 8.7 | 0.00 | 0.00 | 0.00 | 76 | 1011.7 |
| 20260503031532 | 64 | 250 | 4.3 | 9.6 | 0.00 | 0.00 | 0.00 | 76 | 1011.6 |
| 20260503031020 | 64 | 254 | 4.3 | 10.4 | 0.00 | 0.00 | 0.00 | 76 | 1011.6 |
| 20260503030524 | 64 | 227 | 5.2 | 11.3 | 0.00 | 0.00 | 0.00 | 76 | 1011.5 |
| 20260503030041 | 65 | 254 | 5.2 | 11.3 | 0.00 | 0.00 | 0.00 | 75 | 1011.4 |
| 20260503025521 | 65 | 262 | 3.5 | 10.4 | 0.00 | 0.00 | 0.00 | 75 | 1011.3 |
| 20260503025021 | 65 | 256 | 4.3 | 9.6 | 0.00 | 0.00 | 0.00 | 74 | 1011.2 |
| 20260503024535 | 65 | 252 | 2.6 | 9.6 | 0.00 | 0.00 | 0.00 | 74 | 1011.1 |
| 20260503024017 | 66 | 213 | 3.5 | 11.3 | 0.00 | 0.00 | 0.00 | 73 | 1011.1 |
| 20260503023520 | 66 | 232 | 4.3 | 11.3 | 0.00 | 0.00 | 0.00 | 72 | 1011.0 |
| 20260503023039 | 67 | 248 | 5.2 | 9.6 | 0.00 | 0.00 | 0.00 | 72 | 1011.0 |
| 20260503022521 | 67 | 221 | 3.5 | 11.3 | 0.00 | 0.00 | 0.00 | 71 | 1010.9 |
| 20260503022020 | 68 | 257 | 4.3 | 11.3 | 0.00 | 0.00 | 0.00 | 70 | 1010.7 |